Regional Weather Roundup
Issued by NWS

Home | Current Version | Previous Version | Text Only | Print | Product List | Glossary Off
Versions: 1 2 3 4 5 6 7 8 9 10 11 12 13 14 15 16 17 18 19 20 21 22 23 24 25 26 27 28 29 30 31 32 33 34 35 36 37 38 39 40 41 42 43 44 45 46 47 48 49 50

805
ASUS43 KLMK 190110
RWRKY
KENTUCKY REGIONAL WEATHER ROUNDUP
NATIONAL WEATHER SERVICE LOUISVILLE KY
900 PM EDT FRI AUG 18 2017

NOTE "FAIR" INDICATES FEW OR NO CLOUDS BELOW 12,000 FEET
WITH NO SIGNIFICANT WEATHER AND/OR OBSTRUCTIONS TO VISIBILITY.

KYZ001>023-026-027-061>063-070>075-190200-
WESTERN AND SOUTH CENTRAL KENTUCKY

CITY           SKY/WX    TMP DP  RH WIND       PRES   REMARKS
PADUCAH        CLEAR     79  64  60 SW5       29.95R
HENDERSON      CLEAR     73  68  84 S5        29.94S
OWENSBORO      CLEAR     78  68  71 SW3       29.94S
HOPKINSVILLE   CLEAR     78  67  69 SW5       29.97R
BOWLING GREEN  CLEAR     80  66  62 W3        29.97R
GLASGOW        CLEAR     72  67  83 CALM      29.97R
$$

KYZ024-025-028>034-038-045-046-053-190200-
NORTH CENTRAL KENTUCKY

CITY           SKY/WX    TMP DP  RH WIND       PRES   REMARKS
LOUISVILLE/SDF PTCLDY    80  65  59 SW7       29.93S
LOUISVILLE/LOU CLEAR     80  65  59 SW5       29.93S
FORT KNOX      CLEAR     73  66  81 CALM      29.94S
$$

KYZ035>037-039>044-047>052-055>060-089>105-190200-
NORTHEAST KENTUCKY

CITY           SKY/WX    TMP DP  RH WIND       PRES   REMARKS
LEXINGTON      CLEAR     76  63  64 SW6       29.95S
COVINGTON      PTCLDY    77  66  68 SW5       29.92S
FRANKFORT      CLEAR     76  64  66 SW3       29.93S
$$

KYZ054-064>069-076>088-106>120-190200-
SOUTHEAST KENTUCKY

CITY           SKY/WX    TMP DP  RH WIND       PRES   REMARKS
JACKSON        CLEAR     74  63  68 VRB3      29.98R
LONDON         CLEAR     75  64  68 W3        29.99S
SOMERSET       CLEAR     72  63  73 CALM      29.99S
MIDDLESBORO    CLEAR     73  67  81 CALM      30.00R
MONTICELLO     CLEAR     69  68  96 N9        30.01R
$$





USA.gov is the U.S. government's official web portal to all federal, state and local government web resources and services.